Regional Weather Roundup
Issued by NWS Albany, NY

Home | Current Version | Previous Version | Graphics & Text | Print | Product List | Glossary Off
Versions: 1 2 3 4 5 6 7 8 9 10 11 12 13 14 15 16 17 18 19 20 21 22 23 24 25 26 27 28 29 30 31 32 33 34 35 36 37 38 39 40 41 42 43 44 45 46 47 48 49 50

000
ASUS41 KALY 271810
RWRALY

NEW YORK STATE HOURLY WEATHER ROUNDUP
NATIONAL WEATHER SERVICE ALBANY NY
200 PM EDT MON APR 27 2015

NOTE: "FAIR" INDICATES FEW OR NO CLOUDS BELOW 12,000 FEET WITH NO
SIGNIFICANT WEATHER AND/OR NO OBSTRUCTIONS TO VISIBILITY.

NYZ032-033-038>043-046>054-057>066-NYZ062>081-271900-
EAST


CITY           SKY/WX    TMP DP  RH WIND       PRES   REMARKS
ALBANY         CLOUDY    54  41  61 NE7       29.67S
GLENS FALLS    CLOUDY    55  36  48 N14       29.67F
POUGHKEEPSIE   PTSUNNY   59  33  37 NW15      29.65S
NEWBURGH       PTSUNNY   55  34  44 N14G20    29.67
MONTGOMERY     CLOUDY    57  32  38 NW15      29.67S
WHITE PLAINS   CLOUDY    57  31  37 NW15      29.64S
ISLIP          PTSUNNY   58  32  37 NW14G22   29.62S
NEW YORK CITY  CLOUDY    57  31  37 NW10      29.66S
CENTRAL PARK   CLOUDY    59  28  30 VRB3      29.68F
$$

NYZ005>009-017-018-044>046-055-056-271900-
CENTRAL


CITY           SKY/WX    TMP DP  RH WIND       PRES   REMARKS
FULTON         PTSUNNY   48  35  60 NW12      29.83R
SYRACUSE       PTSUNNY   50  34  54 NW16G23   29.81R
ROME           CLOUDY    50  35  56 W15       29.77R
ELMIRA         CLOUDY    48  38  68 NW8       29.80R
BINGHAMTON     CLOUDY    47  35  63 NW8G17    29.75S
MONTICELLO     CLOUDY    46  37  71 NW12G18   29.72S
$$

NYZ026>034-041>043-271900-
NORTH


CITY           SKY/WX    TMP DP  RH WIND       PRES   REMARKS
WATERTOWN      CLOUDY    46  38  73 SW10      29.81R
FORT DRUM      NOT AVBL
MASSENA        CLOUDY    53  38  56 W3        29.78S
SARANAC LAKE   LGT RAIN  43  38  82 N8        29.71S
PLATTSBURGH    CLOUDY    50  41  71 N17       29.73S
$$

NYZ001>004-010>016-019>021-271900-
WEST


CITY           SKY/WX    TMP DP  RH WIND       PRES   REMARKS
NIAGARA FALLS  PTSUNNY   46  35  65 NW9       29.88S
BUFFALO        PTSUNNY   45  34  65 NW10      29.88R
DUNKIRK        CLOUDY    42  38  85 NW7       29.92R
JAMESTOWN      CLOUDY    37  34  87 N10       29.87R WCI  30
WELLSVILLE     LGT RAIN  42  37  82 NW10      29.82S
ROCHESTER      PTSUNNY   50  34  54 N13G20    29.85S
PENN YAN       CLOUDY    47  35  63 NW17      29.83R
$$

             KEY
       WCI = WIND CHILL INDEX
       VSB = VISIBILITY
       HX  = HEAT INDEX
$$



USA.gov is the U.S. government's official web portal to all federal, state and local government web resources and services.